Probability
0 0 0 0 0 0 0 0 0 0 0 0 0 0 0 0 0 0 0 0 1 1 0 0 0 0 0 0 0 0 0 0 0 0 0 0 0 0 0 0 0 0 0 0
0 0 0 0 0 0 0 0 0 0 0 0 0 0 0 0 0 0 0 0 1 1 0 0 0 0 0 0 0 0 0 0 0 0 0 0 0 0 0 0 0 0 0 0
0 0 0 0 0 0 0 0 0 0 0 0 0 0 0 0 0 0 0 0 1 1 0 0 0 0 0 0 0 0 0 0 0 0 0 0 0 0 0 0 0 0 0 0
0 0 0 0 0 0 0 0 0 0 0 0 0 0 0 0 0 0 0 0 0 0 0 0 0 0 0 0 0 0 0 0 0 0 0 0 0 0 0 0 0 0 0 0
0 0 0 0 0 0 0 0 0 0 0 0 0 0 0 0 0 0 0 0 0 0 0 0 0 0 0 0 0 0 0 0 0 0 0 0 0 0 0 0 0 0 0 0
0 0 0 0 0 0 0 0 0 0 0 0 0 0 0 0 0 0 0 0 0 0 0 0 0 0 0 0 0 0 0 0 0 0 0 0 0 0 0 0 0 0 0 0
0 0 0 0 0 0 0 0 0 0 0 0 0 0 0 0 0 0 0 0 0 0 0 0 0 0 0 0 0 0 0 0 0 0 0 0 0 0 0 0 0 0 0 0
0 0 0 0 0 0 0 0 0 0 0 0 0 0 0 0 0 0 0 0 0 0 0 0 0 0 0 0 0 0 0 0 0 0 0 0 0 0 0 0 0 0 0 0
0 0 0 0 0 0 0 0 0 0 0 0 0 0 0 0 0 0 0 0 0 0 0 0 0 0 0 0 0 0 0 0 0 0 0 0 0 0 0 0 0 0 0 0
0 0 0 0 0 0 0 0 0 0 0 0 0 0 0 0 0 0 0 0 0 0 0 0 0 0 0 0 0 0 0 0 0 0 0 0 0 0 0 0 0 0 0 0
0 0 0 0 0 0 0 0 0 0 0 0 0 0 0 0 0 0 0 0 0 0 0 0 0 0 0 0 0 0 0 0 0 0 0 0 0 0 0 0 0 0 0 0
0 0 0 0 0 0 0 0 0 0 0 0 0 0 0 0 0 0 0 0 0 0 0 0 0 0 0 0 0 0 0 0 0 0 0 0 0 0 0 0 0 0 0 0
0 0 0 0 0 0 0 0 0 0 0 0 0 0 0 0 0 0 0 0 0 0 0 0 0 0 0 0 0 0 0 0 0 0 0 0 0 0 0 0 0 0 0 0
0 0 0 0 0 0 0 0 0 0 0 0 0 0 0 0 0 0 0 0 0 0 0 0 0 0 0 0 0 0 0 0 0 0 0 0 0 0 0 0 0 0 0 0
0 0 0 0 0 0 0 0 0 0 0 0 0 0 0 0 0 0 0 0 0 0 0 0 0 0 0 0 0 0 0 0 0 0 0 0 0 0 0 0 0 0 0 0
0 0 0 0 0 0 0 0 0 0 0 0 0 0 0 0 0 0 0 0 0 0 0 0 0 0 0 0 0 0 0 0 0 0 0 0 0 0 0 0 0 0 0 0
0 0 0 0 0 0 0 0 0 0 0 0 0 0 0 0 0 0 0 0 0 0 0 0 0 0 0 0 0 0 0 0 0 0 0 0 0 0 0 0 0 0 0 0
0 0 0 0 0 0 0 0 0 0 0 0 0 0 0 0 0 0 0 0 0 0 0 0 0 0 0 0 0 0 0 0 0 0 0 0 0 0 0 0 0 0 0 0
0 0 0 0 0 0 0 0 0 0 0 0 0 0 0 0 0 0 0 0 0 0 0 0 0 0 0 0 0 0 0 0 0 0 0 0 0 0 0 0 0 0 0 0
0 0 0 0 0 0 0 0 0 0 0 0 0 0 0 0 0 0 0 0 0 0 0 0 0 0 0 0 0 0 0 0 0 0 0 0 0 0 0 0 0 0 0 0
0 0 0 0 0 0 0 0 0 0 0 0 0 0 0 0 0 0 0 0 0 0 0 0 0 0 0 0 0 0 0 0 0 0 0 0 0 0 0 0 0 0 0 0
0 0 0 0 0 0 0 0 0 0 0 0 0 0 0 0 0 0 0 0 0 0 0 0 0 0 0 0 0 0 0 0 0 0 0 0 0 0 0 0 0 0 0 0
0 0 0 0 0 0 0 0 0 0 0 0 0 0 0 0 0 0 0 0 0 0 0 0 0 0 0 0 0 0 0 0 0 0 0 0 0 0 0 0 0 0 0 0
0 0 0 0 0 0 0 0 0 0 0 0 0 0 0 0 0 0 0 0 0 0 0 0 0 0 0 0 0 0 0 0 0 0 0 0 0 0 0 0 0 0 0 0
0 0 0 0 0 0 0 0 0 0 0 0 0 0 0 0 0 0 0 0 0 0 0 0 0 0 0 0 0 0 0 0 0 0 0 0 0 0 0 0 0 0 0 0
0 0 0 0 0 0 0 0 0 0 0 0 0 0 0 0 0 0 0 0 0 0 0 0 0 0 0 0 0 0 0 0 0 0 0 0 0 0 0 0 0 0 0 0
0 0 0 0 0 0 0 0 0 0 0 0 0 0 0 0 0 0 0 0 0 0 0 0 0 0 0 0 0 0 0 0 0 0 0 0 0 0 0 0 0 0 0 0
Wind_Speed
7 8 5 6 7 6 8 8 8 9 10 12 11 11 9 8 7 7 8 6 7 8 8 7 6 6 6 6 5 5 5 6 7 6 6 6 6 6 6 6 6 5 5 4
5 6 5 7 10 8 8 7 8 9 13 14 13 10 9 10 9 9 9 7 6 6 7 7 7 6 6 6 5 5 6 6 5 5 5 6 6 6 6 6 5 5 5 5
5 5 5 7 7 5 4 5 5 8 13 13 11 11 11 10 8 9 7 4 5 6 6 5 6 6 7 7 5 6 6 6 5 6 6 6 5 6 6 6 5 5 5 5
3 2 5 6 3 2 4 5 3 8 14 15 13 11 8 6 6 6 3 3 4 4 4 3 2 3 4 4 5 6 6 6 6 6 6 6 5 6 6 5 5 5 5 5
4 3 6 5 4 2 3 3 8 16 19 18 9 4 4 2 1 2 3 5 5 5 5 5 4 2 2 2 3 4 5 6 5 6 6 6 7 7 5 5 5 4 4 4
3 4 3 3 10 9 2 4 14 20 20 17 8 4 5 3 4 7 8 7 6 6 6 6 5 4 5 2 1 2 3 4 4 5 7 7 7 5 4 4 5 5 4 3
3 3 1 5 13 7 7 8 17 16 17 13 6 5 3 3 4 6 7 6 6 7 6 4 3 5 6 4 3 2 2 2 2 3 5 5 4 4 4 4 4 4 3 2
1 2 1 9 9 7 4 7 10 13 14 14 10 4 1 3 5 6 6 6 6 6 5 3 3 5 5 3 2 2 3 3 3 1 1 3 4 4 4 5 4 3 2 1
4 3 4 7 7 4 4 8 10 13 15 14 10 4 1 3 4 4 5 5 4 5 4 2 2 2 3 0 2 3 4 4 4 4 3 1 3 4 4 4 3 2 1 1
6 6 12 13 6 6 8 10 12 12 12 12 11 5 2 5 4 4 4 4 4 5 4 2 1 1 1 1 1 2 3 3 4 4 4 4 2 2 3 3 3 3 2 2
7 10 10 6 7 11 13 13 14 14 11 11 11 6 4 6 6 5 4 4 4 5 4 3 2 3 2 2 2 1 2 2 3 3 3 4 4 3 2 1 2 3 2 2
6 8 8 14 13 12 13 13 14 16 18 16 10 7 5 6 6 6 5 5 4 4 3 2 2 2 2 3 3 2 1 1 2 2 2 3 3 4 7 5 4 2 1 2
10 13 13 16 16 12 11 13 14 14 13 15 12 6 4 6 6 6 6 6 6 5 4 3 1 1 2 3 4 3 2 1 1 1 1 2 2 2 2 4 8 9 7 4
12 12 13 15 17 15 13 14 14 14 11 8 8 6 2 5 5 7 7 7 6 4 4 3 3 2 3 4 4 3 2 2 2 1 1 1 1 2 2 2 1 2 5 7
12 14 15 18 17 15 11 11 13 13 11 10 8 6 3 6 8 9 7 6 5 4 4 4 4 4 3 4 4 4 3 2 2 2 1 1 2 2 2 2 2 1 2 3
19 17 16 16 16 14 11 10 11 12 11 11 10 9 6 7 7 6 6 7 6 6 6 6 6 4 5 5 4 3 2 5 4 2 2 2 2 2 2 2 2 2 2 1
17 18 19 19 17 15 12 11 10 11 10 11 11 11 6 5 5 6 6 6 6 5 5 6 6 5 5 5 5 3 2 3 5 3 2 2 2 3 3 3 3 2 1 1
15 16 14 15 15 16 15 13 11 11 11 10 10 8 4 7 9 9 7 6 4 3 4 5 6 6 6 5 4 3 3 2 2 2 2 2 3 3 3 3 3 3 2 1
14 16 15 15 14 13 14 13 13 11 11 8 8 8 6 7 7 6 6 7 7 6 5 6 10 8 6 6 5 3 3 3 2 2 2 3 3 3 3 3 2 2 2 2
14 16 16 17 17 15 15 14 13 12 11 7 7 7 6 6 6 6 7 7 6 5 6 8 8 7 6 6 6 3 4 3 3 2 2 3 3 3 3 3 3 2 2 2
15 17 18 18 18 17 15 14 13 13 11 7 7 8 7 5 6 7 6 5 4 6 9 12 8 6 5 5 6 4 4 3 3 3 3 3 3 3 2 2 2 2 2 2
14 15 18 18 18 18 17 14 13 12 11 8 8 7 5 5 7 6 5 4 6 11 8 7 6 9 9 8 4 4 4 4 3 3 3 3 3 2 2 2 2 2 2 2
12 13 16 17 17 17 16 13 13 12 10 8 7 7 6 6 6 7 5 4 7 13 9 7 10 15 13 6 4 4 4 4 4 3 3 3 2 2 2 3 2 2 3 3
13 14 16 16 15 15 16 17 15 12 10 8 6 5 5 5 4 3 4 11 13 13 8 10 16 16 13 5 4 4 4 4 4 4 3 3 3 3 3 3 3 3 3 3
13 14 14 16 15 13 14 15 15 12 12 7 6 3 3 4 5 5 6 9 15 13 8 12 18 15 8 5 5 4 4 4 4 4 4 3 3 3 3 3 3 3 3 3
11 12 11 12 11 10 10 11 11 10 9 8 5 2 0 3 6 6 6 9 12 12 9 8 8 9 6 5 5 5 4 4 5 4 4 4 4 4 3 3 4 3 3 3
10 10 9 10 10 9 9 9 10 11 9 7 5 2 1 4 6 7 8 8 8 8 8 7 7 6 6 5 5 4 4 4 4 4 4 3 3 3 3 4 3 3 3 3
Wind_Direction
259 269 260 251 247 206 202 206 212 240 247 257 256 257 262 266 269 276 275 251 216 201 195 190 192 200 204 208 201 194 196 204 211 207 199 192 187 186 184 186 193 194 199 205
293 292 290 272 265 246 231 230 239 261 270 261 261 262 265 265 265 267 267 251 221 193 181 186 194 201 207 212 201 190 206 216 208 194 192 191 187 177 175 181 185 183 191 194
279 311 338 284 262 244 244 239 234 269 280 290 283 266 255 256 256 256 263 245 199 181 179 182 189 197 213 217 192 193 214 220 203 194 197 198 185 177 183 185 181 182 188 189
256 322 253 257 293 267 278 280 316 305 306 304 278 267 259 252 248 256 234 171 154 140 125 119 151 195 217 215 202 207 216 222 213 202 205 200 193 196 192 181 182 185 187 190
184 222 274 327 351 340 317 297 27 349 336 332 315 312 313 303 212 167 130 114 102 101 101 89 72 78 135 202 221 225 232 233 227 215 213 205 206 207 193 180 182 182 182 187
176 190 231 336 313 303 208 314 358 348 337 332 329 342 303 12 79 96 98 98 100 95 86 75 58 73 84 75 73 270 266 256 237 222 221 220 216 200 183 180 180 173 178 189
205 214 280 341 322 9 58 324 327 331 330 328 301 265 292 79 88 103 101 96 92 86 81 78 78 83 78 67 43 338 320 303 264 231 225 221 202 176 169 167 162 163 175 198
246 193 93 5 2 21 332 307 315 322 333 331 316 315 66 98 113 112 103 95 92 94 90 72 73 90 86 61 10 19 35 34 19 360 235 188 174 167 160 158 159 163 166 254
319 307 354 346 322 322 342 322 322 325 329 334 335 338 94 128 133 122 116 113 108 116 110 79 45 99 120 340 2 25 35 31 25 31 35 98 157 154 144 151 151 150 149 272
300 298 316 312 309 334 335 323 316 315 317 334 332 311 197 169 166 150 136 135 130 127 133 167 227 243 226 262 22 31 24 23 28 40 44 52 76 126 144 157 150 148 169 236
272 286 299 298 325 325 322 321 321 322 324 330 328 306 214 195 184 170 156 152 148 153 171 200 224 236 232 198 145 79 23 32 44 51 61 64 63 58 84 112 150 161 192 207
282 295 296 297 308 315 312 317 322 323 325 329 325 298 226 198 187 170 164 159 161 178 195 215 226 239 218 177 157 144 97 42 48 62 71 82 89 77 57 59 70 104 157 182
288 299 295 295 300 302 300 306 309 309 310 315 321 306 218 189 184 173 169 171 183 197 204 205 193 168 165 161 157 161 169 166 108 89 99 101 99 104 93 54 54 54 48 47
311 315 306 305 301 299 295 297 298 300 301 306 322 325 212 180 179 185 189 191 187 187 194 193 181 182 172 158 155 158 152 147 134 127 132 138 142 142 139 135 89 44 41 51
314 315 304 302 297 293 291 293 298 304 313 325 340 337 238 197 198 201 196 172 161 178 197 192 190 193 172 158 154 153 144 130 121 118 123 133 137 139 144 146 133 111 92 68
311 314 317 319 315 308 299 291 292 299 310 319 323 322 272 221 213 201 179 161 167 196 204 197 199 189 163 153 148 146 150 148 136 125 111 105 109 116 122 129 129 124 116 98
313 319 326 326 322 315 303 292 287 291 299 304 306 310 283 208 196 200 196 188 189 198 197 196 196 169 155 152 151 150 140 131 125 112 104 106 108 112 118 123 127 126 128 163
303 304 306 308 312 312 310 303 292 286 284 285 294 301 259 204 203 205 196 171 166 197 211 198 172 153 151 151 151 146 139 128 123 125 115 103 104 107 112 117 126 126 115 117
313 311 314 318 320 315 313 306 295 285 279 277 282 282 250 223 215 198 164 158 177 205 213 181 162 150 148 158 152 143 141 137 127 120 117 115 103 97 100 104 109 115 120 112
325 322 324 329 332 330 322 312 298 285 276 266 269 272 255 226 196 175 167 184 198 193 166 159 150 145 148 156 151 143 146 145 141 131 120 117 112 105 100 100 103 107 107 102
333 331 332 335 333 331 325 317 304 287 277 258 248 253 249 224 180 167 169 200 205 161 155 156 149 145 143 147 144 138 142 142 141 138 131 126 119 112 107 106 105 102 95 84
331 331 331 331 331 331 329 325 317 298 280 263 249 244 231 199 178 177 190 189 165 160 153 152 148 152 152 144 135 138 140 139 132 125 123 125 124 121 116 114 107 96 84 76
325 326 327 328 327 323 323 326 326 317 291 268 253 235 213 191 173 170 192 183 158 161 153 155 157 155 150 140 140 141 141 138 134 129 126 124 125 126 121 115 106 98 91 84
321 325 325 324 324 326 329 332 330 324 309 288 268 238 193 171 182 184 137 150 157 150 150 157 155 153 146 138 142 142 141 137 132 127 124 121 119 120 118 115 109 105 102 98
315 320 323 327 328 326 325 326 328 330 332 325 321 291 196 165 159 156 145 151 153 146 143 159 157 150 141 138 142 141 139 137 133 128 124 124 122 118 114 112 112 110 103 97
309 312 313 312 309 310 316 321 323 323 323 320 322 323 124 118 122 127 134 140 144 142 140 142 143 139 138 140 141 140 135 129 123 122 127 126 125 123 118 112 108 105 102 98
299 303 307 310 312 312 314 316 318 317 312 298 288 273 178 131 129 134 136 138 139 136 134 134 134 136 136 136 136 135 132 129 129 129 130 132 135 133 131 126 119 113 107 100